Location: Praha
(50.0755°N, 14.4378°E)
Time: 17:31:34
(UTC+01:00)

ISS - Pass Details

Date: 22 January 2020
Orbit: 415 x 422 km, 51.6° (Epoch: 26 February)

Event Time Altitude Azimuth Distance (km) Brightness Sun altitude
Rises 18:18:30 0° 213° (SSW) 2,368 0.8 -15.7°
Reaches altitude 10° 18:20:51 10° 199° (SSW) 1,506 -0.6 -16.1°
Maximum altitude 18:23:36 24° 144° (SE) 935 -2.3 -16.5°
Enters shadow 18:23:49 23° 138° (SE) 939 -2.3 -16.5°
